Regional Weather Roundup
Issued by NWS Kansas City/Pleasant Hill, MO

Home | Current Version | Previous Version | Text Only | Print | Product List | Glossary On
Versions: 1 2 3 4 5 6 7 8 9 10 11 12 13 14 15 16 17 18 19 20 21 22 23 24 25 26 27 28 29 30 31 32 33 34 35 36 37 38 39 40 41 42 43 44 45 46 47 48 49 50
000
ASUS43 KEAX 302010
RWREAX

WEATHER ROUNDUP FOR EASTERN KANSAS AND NORTHWEST MISSOURI
NATIONAL WEATHER SERVICE KANSAS CITY/PLEASANT HILL MO
300 PM CDT SAT APR 30 2016

KSZ040-057-103>105-MOZ028-029-037-043-302100-
...KANSAS CITY METROPOLITAN AREA...

CITY           SKY/WX    TMP DP  RH WIND       PRES   REMARKS
K.C. INTL      PTSUNNY   64  51  62 W14G23    29.73R
K.C. DOWNTOWN  MOSUNNY   67  50  54 SW16G25   29.72R
LEES SUMMIT    MOSUNNY   66  52  60 W13G25    29.72S
OLATHE - IXD   MOSUNNY   65  51  60 W16       29.74R
OLATHE - OJC   MOSUNNY   64  50  60 W13G22    29.73S
LAWRENCE       MOSUNNY   66  52  60 W12G24    29.73S

$$

MOZ001>008-011>017-020>025-030>033-038>040-044>046-053-054-302100-
...NORTHERN AND CENTRAL MISSOURI...

CITY           SKY/WX    TMP DP  RH WIND       PRES   REMARKS
ST. JOSEPH     CLOUDY    61  53  75 SW14      29.73R
MOSBY            N/A     66  50  55 SW15G24   29.72R
WARRENSBURG    MOSUNNY   66  54  63 SW14G23   29.72R
WHITEMAN AFB   MOSUNNY   70  56  61 W18G26    29.70R
CLINTON        MOSUNNY   72  57  60 W17G24    29.72S
SEDALIA        MOSUNNY   73  57  57 W17G26    29.71R
WARSAW         NOT AVBL
CHILLICOTHE      N/A     71  62  73 NW8       29.69R
KIRKSVILLE     CLOUDY    65  60  84 NE6       29.71S

$$

MOZ041-047>049-056>058-063>065-088>090-097-302100-
...EASTERN AND SOUTHERN MISSOURI...

CITY           SKY/WX    TMP DP  RH WIND       PRES   REMARKS
ST. LOUIS INTL CLOUDY    71  62  73 VRB7      29.75R
SPIRIT OF STL  CLOUDY    72  64  78 S9        29.73R
COLUMBIA       PTSUNNY   73  58  59 W16       29.70R
JEFFERSON CITY MOSUNNY   74  59  59 W12       29.69R
ROLLA          MOSUNNY   73  62  68 SW17      29.71R
OSAGE BEACH    PTSUNNY   73  55  53 W12       29.71R
SPRINGFIELD    PTSUNNY   73  60  63 W16       29.74R
BRANSON        PTSUNNY   73  61  64 SW6       29.75R
JOPLIN         PTSUNNY   70  57  63 W16G22    29.76R
WEST PLAINS    PTSUNNY   71  58  63 SW9       29.76F

$$

IAZ060-094-KSZ022-034>040-054-083-096-NEZ052-066-093-302100-
...KANSAS...SOUTHEAST NEBRASKA AND IOWA...

CITY           SKY/WX    TMP DP  RH WIND       PRES   REMARKS
TOPEKA         PTSUNNY   63  50  62 VRB7      29.73S
MANHATTAN      PTSUNNY   62  47  57 W13       29.74R
EMPORIA        MOSUNNY   62  48  60 W12G20    29.76R
CHANUTE        SUNNY     66  51  58 W14       29.77S
WICHITA        MOSUNNY   63  45  51 W14G23    29.78S
OMAHA          DRIZZLE   50  48  93 E5        29.76R FOG
LINCOLN        LGT RAIN  52  50  93 E7        29.75R FOG
FALLS CITY     PTSUNNY   60  53  77 W13       29.71R
LAMONI         CLOUDY    53  52  96 E6        29.73R FOG
DES MOINES     LGT RAIN  50  46  86 E15G22    29.77S FOG

$$




USA.gov is the U.S. government's official web portal to all federal, state and local government web resources and services.